Theta_e
323 324 323 322 308 306 299 302 308 306 306 310 314 312 310 312 311 310 332 324 330 339 342 342 343 344 347 348 348 348 347 346 345 344 343 341 340 338 336 336 339 336 335 334 334 334 333 332 332
319 321 320 315 303 298 298 306 304 307 309 315 313 313 311 310 327 328 324 325 330 339 342 341 341 343 346 347 348 348 347 346 345 344 342 340 339 337 336 336 338 334 333 333 333 332 330 330 330
317 321 312 308 302 297 298 304 305 309 311 310 307 312 313 320 328 328 326 325 331 338 341 340 340 344 346 348 348 346 346 346 345 343 341 340 338 336 336 335 335 334 332 332 332 330 329 329 329
315 316 313 300 298 303 304 307 309 308 309 312 310 307 320 330 330 334 329 324 333 338 340 338 341 344 346 347 347 346 345 344 343 342 340 338 337 336 336 335 336 333 332 332 330 328 329 329 329
314 309 299 297 298 302 305 307 307 307 308 309 312 309 314 329 335 334 326 324 333 337 338 338 341 345 346 346 345 344 343 344 343 341 340 339 338 337 335 335 334 332 331 330 328 328 328 329 329
303 303 293 293 297 301 305 308 307 307 309 309 308 307 312 331 332 332 324 324 334 336 337 338 337 340 342 343 343 343 343 342 341 340 339 339 337 336 336 334 334 333 330 328 328 328 328 328 329
301 299 294 294 295 298 301 305 303 304 305 307 311 306 312 325 332 331 322 325 335 338 338 336 340 339 336 338 339 340 341 340 339 339 338 337 334 334 335 334 333 331 329 328 328 328 328 329 329
304 298 292 294 294 296 301 302 305 305 304 311 310 304 307 326 332 331 323 323 336 337 338 335 337 339 339 337 333 335 336 336 336 335 332 330 331 331 332 330 332 330 329 329 328 329 329 330 330
308 294 291 293 294 296 302 300 305 308 305 306 311 310 322 330 331 328 322 321 332 335 335 334 333 336 338 337 332 330 331 331 331 330 327 325 326 327 326 327 330 333 332 330 330 330 331 331 329
299 294 295 297 297 296 298 298 299 300 303 304 306 311 323 328 326 324 322 319 326 331 333 333 332 333 336 338 333 332 331 331 329 328 326 326 327 326 328 324 327 328 327 329 330 330 330 326 323
300 293 297 298 300 300 298 298 301 297 295 301 302 308 314 323 323 325 326 323 323 330 333 334 331 332 331 330 334 334 330 329 327 327 326 325 325 325 324 323 322 322 318 321 324 323 323 323 323
295 299 300 300 301 300 298 300 298 298 298 303 302 304 312 312 319 321 325 327 326 328 330 332 332 331 330 333 333 332 330 328 325 325 326 323 323 323 321 322 323 322 320 320 322 323 323 323 326
296 298 300 301 301 300 301 298 298 298 302 304 304 303 304 310 311 322 325 328 329 324 328 329 331 329 330 332 332 332 330 328 324 324 325 323 322 320 321 320 320 322 323 323 323 323 323 324 325
299 299 298 300 300 301 298 298 299 299 303 302 303 301 301 304 309 313 323 325 328 328 327 329 329 330 329 328 330 331 328 327 323 323 324 324 322 321 321 320 320 320 322 323 323 322 322 322 324
299 294 297 299 300 298 299 294 295 301 303 300 300 301 302 302 308 312 320 325 328 328 327 326 326 328 328 328 329 330 328 326 323 323 324 324 324 322 320 320 320 321 323 323 323 323 323 323 324
295 296 289 297 299 299 297 288 298 302 300 299 301 304 307 311 314 315 321 325 327 327 327 325 326 327 328 327 330 328 328 324 325 324 323 325 325 323 321 320 321 323 324 324 324 324 324 324 323
293 285 288 291 298 297 295 290 297 300 299 298 299 302 303 308 310 311 317 325 326 326 326 326 326 326 328 329 329 328 327 327 327 324 323 325 325 325 323 322 322 325 326 325 326 326 325 323 323
285 286 289 289 295 294 292 291 296 299 297 295 297 300 302 305 307 310 312 323 325 327 327 326 326 326 328 329 327 327 327 326 329 325 325 326 325 325 324 323 323 327 327 326 326 325 325 323 323
291 289 287 292 296 291 292 293 294 296 296 295 295 297 299 303 306 308 309 312 315 326 325 325 324 325 326 327 324 325 324 325 327 328 328 328 325 326 325 324 324 326 326 326 325 324 323 323 325
291 288 287 291 295 293 292 288 292 293 293 295 294 294 298 301 302 304 306 307 308 311 317 324 325 325 326 327 326 325 326 325 327 328 329 329 326 326 326 326 326 326 325 324 323 322 322 322 324
289 286 286 287 292 293 290 287 289 291 294 293 294 295 298 298 299 302 302 304 305 305 307 310 315 326 327 327 327 326 325 325 325 325 326 326 327 327 328 327 326 325 325 323 323 324 322 320 322
286 294 290 289 288 284 290 280 285 289 289 291 291 293 296 297 301 301 301 302 304 304 305 306 308 311 314 320 325 324 323 321 323 325 326 326 326 326 327 327 326 325 326 323 323 326 325 323 320
289 293 291 291 289 288 285 282 284 288 286 288 291 291 296 297 299 301 302 303 303 306 305 306 306 307 309 311 314 319 321 322 323 323 323 323 322 321 321 323 323 323 324 324 323 321 318 318 320
294 291 292 290 289 282 281 280 281 284 286 287 292 294 297 299 300 301 303 304 303 304 305 306 305 305 306 308 309 310 310 310 315 317 316 316 317 317 317 318 318 318 319 319 320 319 316 315 316
291 287 278 280 277 275 284 281 283 288 290 291 292 293 296 300 299 300 300 301 302 302 303 304 304 303 304 305 305 307 307 308 308 309 311 311 312 312 312 313 313 314 314 315 316 317 314 314 314
287 286 277 272 275 277 284 276 282 289 293 293 293 294 295 295 297 298 298 299 300 301 301 302 303 302 302 303 304 305 306 307 307 308 308 308 308 308 310 311 311 311 312 313 314 313 312 314 314
286 282 288 282 278 277 280 284 288 291 291 291 291 291 291 292 293 293 295 296 296 296 297 298 299 300 300 300 301 302 303 305 305 306 307 307 307 307 307 308 308 309 309 310 311 309 309 309 309
288 290 280 280 271 273 277 278 279 285 287 289 288 288 289 290 291 292 292 294 295 295 295 297 298 298 299 299 299 300 301 302 304 305 304 304 304 305 305 304 304 305 306 307 307 306 306 304 303
286 285 286 284 281 277 276 276 285 286 286 286 287 289 289 289 290 290 292 293 293 293 293 293 294 295 296 297 298 298 298 300 301 302 302 302 302 301 301 301 302 302 302 303 303 301 301 300 299
288 285 286 278 278 279 279 277 290 287 287 286 286 288 289 289 289 290 290 292 292 292 293 293 293 294 295 297 297 297 298 298 299 299 299 300 299 300 299 300 300 300 301 301 300 299 299 297 295
Wind_Speed
18 12 5 4 3 4 9 10 11 2 1 4 5 5 9 6 6 4 4 6 13 18 17 14 17 17 15 14 16 15 15 15 18 17 15 14 15 14 13 12 12 12 12 11 10 10 9 8 8
11 13 3 3 5 7 10 13 10 7 2 7 2 4 5 8 9 6 6 6 14 18 16 14 14 16 15 14 15 15 14 15 17 17 15 13 13 14 13 13 11 12 10 10 9 9 8 7 7
12 10 3 4 6 12 11 11 6 7 8 2 2 2 4 3 7 9 8 9 13 17 16 14 13 15 15 13 15 14 13 15 16 15 14 12 13 14 14 13 12 11 10 9 8 7 7 6 6
5 3 4 6 15 13 20 14 8 5 6 5 3 7 4 6 4 5 10 11 12 16 15 17 14 16 15 15 14 14 14 14 14 13 13 11 12 13 12 12 11 11 9 8 7 7 6 5 5
3 4 6 9 15 18 18 18 14 2 7 3 6 6 4 4 8 9 12 9 12 14 13 16 14 15 15 15 14 15 14 13 12 11 11 10 10 11 10 10 10 10 9 8 7 6 4 4 3
3 3 6 11 15 18 17 13 11 5 5 10 1 3 4 8 8 8 8 9 12 14 14 14 12 14 14 15 14 14 14 12 11 11 10 11 10 10 10 9 9 8 8 6 5 4 3 2 2
3 4 10 12 13 15 17 16 7 2 4 9 11 8 2 7 8 9 9 8 13 14 14 12 11 13 13 12 12 12 13 12 11 11 10 10 9 8 7 8 7 7 6 5 4 2 1 1 1
4 3 5 6 9 13 9 11 8 7 5 7 11 6 5 7 8 7 8 7 15 13 13 14 11 11 11 9 12 12 11 11 10 11 10 9 8 8 9 7 5 5 4 3 2 2 2 3 4
3 3 4 7 7 10 18 14 15 11 7 3 10 12 6 9 6 4 5 5 11 9 11 13 13 11 12 10 7 9 11 10 10 9 10 7 5 6 7 6 9 4 2 2 3 3 4 5 8
3 3 2 7 9 10 13 15 16 16 15 12 9 10 9 11 6 6 5 8 9 11 11 12 12 12 12 11 10 8 8 6 5 6 6 5 7 7 9 8 8 5 4 5 6 7 7 7 5
5 3 11 8 10 10 12 14 13 15 14 13 15 14 5 8 5 4 10 8 7 13 8 13 11 11 10 9 9 6 5 6 5 8 7 6 4 6 5 4 4 4 6 4 6 5 4 6 3
5 5 10 10 10 11 12 14 15 15 16 17 21 22 8 7 7 8 8 11 8 13 13 10 16 13 10 7 8 8 7 6 5 6 8 5 1 5 5 3 5 5 4 6 5 3 4 2 4
7 8 12 14 14 13 13 14 14 17 16 16 19 22 15 9 9 9 10 10 6 8 13 12 9 6 6 8 7 7 7 6 5 6 6 5 3 3 3 3 3 4 4 4 4 4 3 4 5
10 12 15 10 11 11 12 9 9 14 17 17 17 16 18 17 10 5 9 11 9 8 17 16 12 11 8 4 6 7 5 6 5 4 5 7 5 5 4 4 4 3 3 4 4 4 4 4 4
10 7 13 9 11 9 7 6 4 14 17 11 11 15 16 13 11 8 10 10 10 9 6 14 11 13 11 7 4 6 5 5 5 5 7 7 5 5 5 4 4 5 4 5 2 3 2 3 4
4 4 8 13 11 8 11 7 8 15 13 12 15 13 14 15 14 14 13 9 7 6 6 6 7 11 12 10 5 3 2 4 5 5 5 7 7 5 4 3 4 4 4 3 2 2 2 3 3
2 6 13 14 9 8 6 12 12 17 11 12 13 15 15 13 13 15 16 4 6 9 9 7 6 8 13 10 6 4 5 2 4 5 5 7 6 7 5 5 5 5 3 4 4 4 4 3 3
9 6 8 13 10 6 7 10 7 12 13 14 13 11 14 11 10 14 12 6 6 7 8 9 7 6 8 7 5 4 3 3 2 3 4 7 6 7 5 4 5 4 3 3 3 5 4 4 4
8 7 9 12 7 4 11 7 9 11 12 13 12 13 12 9 9 10 10 13 11 9 9 11 10 9 7 6 6 4 5 4 2 3 5 5 6 7 6 4 5 5 4 5 5 3 6 3 2
3 7 6 10 11 2 6 6 8 12 13 14 13 12 11 12 11 11 11 13 11 8 10 6 9 10 8 7 6 4 5 3 4 4 4 5 5 6 5 6 5 5 4 5 4 4 3 3 4
5 3 4 6 5 1 6 1 5 5 8 14 15 14 11 13 12 11 13 13 13 14 15 16 12 3 6 5 4 3 3 2 4 4 3 5 7 6 6 6 5 4 3 3 4 5 6 5 4
6 1 6 5 2 2 3 2 3 6 8 10 12 15 15 15 12 10 8 13 7 15 14 19 18 15 11 7 4 5 5 5 5 7 5 4 2 4 2 3 2 0 1 3 3 4 7 7 9
8 9 11 1 3 3 2 3 3 8 8 15 10 12 10 11 14 14 11 10 12 11 14 15 17 17 15 12 11 3 1 1 3 3 5 6 6 6 6 6 5 4 3 4 3 3 10 7 7
10 11 6 4 3 2 6 1 3 10 10 12 13 12 9 11 10 15 15 11 15 13 13 16 16 15 15 13 14 12 12 11 6 5 6 5 5 6 7 6 4 5 5 4 3 4 6 5 6
8 9 2 2 2 1 6 5 2 8 9 8 12 14 14 12 10 7 8 13 15 18 15 11 16 18 14 13 15 14 11 11 13 10 6 8 5 4 4 5 5 5 5 5 6 3 5 2 1
4 4 2 2 3 3 7 5 5 2 5 6 8 9 10 8 7 9 15 14 13 15 11 13 15 15 14 11 12 9 11 6 4 7 6 6 5 4 6 5 7 7 5 2 3 3 2 4 3
5 4 4 4 2 1 2 3 3 5 7 9 10 9 8 8 10 13 13 12 11 9 6 11 12 13 12 9 10 9 9 9 7 7 6 4 2 6 7 6 5 4 4 3 3 3 3 4 4
1 3 1 2 3 2 1 3 3 4 5 8 8 8 8 8 11 9 6 6 5 6 7 9 10 6 7 6 7 7 9 8 8 5 7 6 7 7 5 5 5 5 4 4 4 3 4 4 3
2 1 3 1 1 2 0 2 4 7 5 6 6 7 7 6 6 4 4 3 6 5 7 7 9 8 7 5 4 6 5 5 5 5 7 4 5 5 5 4 4 4 4 5 5 6 5 6 6
1 2 4 1 1 1 2 2 6 8 7 7 6 4 4 5 4 4 6 6 6 6 8 9 8 6 6 6 6 5 4 4 5 6 6 5 6 5 4 4 5 5 5 6 6 5 6 6 7
Wind_Direction
312 303 304 283 254 213 265 259 252 151 151 76 56 316 342 323 336 181 256 125 132 132 148 158 157 159 160 157 154 150 155 154 148 141 134 131 126 119 115 120 117 114 117 111 107 102 96 91 82
302 297 254 281 249 264 258 241 243 171 311 101 64 240 262 266 90 115 166 152 135 137 147 159 155 159 160 164 152 154 159 157 152 144 135 137 131 125 125 120 126 129 122 117 114 106 98 87 79
270 259 275 215 222 244 262 291 36 12 65 96 279 272 307 73 63 143 113 152 149 140 151 149 153 159 160 162 155 159 159 159 147 142 138 143 137 133 131 131 123 120 128 126 113 109 97 86 77
279 192 272 263 255 238 232 261 56 27 306 141 287 280 102 73 101 80 134 142 144 140 154 139 153 159 159 156 152 151 151 143 140 135 145 150 147 139 140 141 139 135 135 123 121 110 99 90 77
247 273 233 236 239 251 277 290 301 152 300 306 193 280 321 67 98 112 136 154 141 138 126 145 153 156 149 149 144 142 143 136 136 140 145 146 144 142 146 138 134 139 133 131 125 115 105 92 73
236 237 243 237 248 250 254 249 263 208 261 297 241 250 297 116 127 134 153 160 143 126 139 146 148 147 146 147 147 143 139 138 143 144 145 146 149 154 151 145 133 132 139 138 132 123 106 83 51
274 274 246 259 276 298 302 313 306 253 275 283 294 275 204 167 136 136 151 178 125 130 144 150 156 149 141 142 140 143 141 142 146 146 143 144 148 142 130 127 140 149 149 149 145 142 185 297 352
303 233 284 275 286 288 294 328 352 314 262 317 322 310 337 46 96 127 147 181 128 138 148 153 165 156 148 149 150 144 139 140 143 137 130 122 126 127 135 131 146 160 160 169 176 221 276 304 300
312 285 290 307 325 351 355 359 338 330 306 357 309 304 100 78 23 138 144 183 139 146 152 162 168 165 156 152 147 133 133 136 134 132 136 138 159 163 151 177 166 156 132 198 217 248 272 279 276
275 264 265 16 354 359 336 343 332 334 324 319 302 275 67 79 31 305 189 196 154 159 169 170 170 171 166 158 147 147 144 150 158 151 159 178 204 172 172 142 154 168 205 235 241 248 255 266 257
344 252 341 335 345 333 317 311 315 307 301 300 295 299 2 128 150 248 286 198 187 168 179 179 176 179 173 159 154 155 162 165 169 174 175 216 195 137 142 152 174 194 215 228 217 227 234 240 247
311 296 331 324 334 324 303 300 286 274 276 287 293 297 299 319 187 191 229 276 179 165 191 197 184 180 175 146 155 157 170 168 172 177 174 190 153 149 165 180 187 190 169 219 198 214 216 265 249
254 324 333 318 309 297 288 285 287 290 286 272 278 285 292 272 285 187 190 244 242 178 187 204 154 165 131 148 146 166 180 165 170 162 167 152 172 187 170 186 194 184 199 196 221 208 218 220 237
348 318 299 291 279 268 267 289 298 280 279 276 284 274 278 280 281 285 192 204 237 216 196 176 167 176 130 151 149 178 185 156 152 156 165 173 176 184 182 190 191 216 219 215 200 219 214 230 228
298 300 290 213 350 322 32 275 252 0 337 310 258 267 283 264 266 283 235 203 207 215 237 175 169 156 151 153 204 190 190 158 155 160 173 176 201 181 174 184 200 205 220 210 216 229 234 249 262
268 244 355 346 354 340 345 297 18 346 330 329 334 356 5 353 6 352 327 192 188 165 191 212 163 145 164 170 165 213 266 157 163 163 169 175 184 195 191 192 204 220 211 212 222 257 294 266 271
78 316 334 328 356 331 358 316 331 323 346 350 356 353 343 338 351 339 310 200 193 158 179 157 147 150 159 175 160 172 225 265 168 166 173 181 185 189 188 202 222 205 182 205 195 220 213 233 253
317 327 310 323 326 343 305 292 321 330 12 359 353 358 328 329 343 331 333 299 207 159 171 152 160 152 154 158 150 159 223 243 258 212 179 179 182 191 192 211 225 227 220 230 215 212 221 204 219
301 280 308 315 318 322 0 16 28 6 2 0 351 344 333 339 344 340 336 27 332 164 161 165 164 164 165 170 160 166 185 223 231 224 203 214 183 187 189 197 218 229 202 210 221 216 214 231 207
302 306 308 298 333 108 343 19 353 9 351 356 4 341 343 360 358 8 10 35 341 53 65 162 176 174 181 181 166 161 171 202 202 215 202 232 210 200 192 193 214 224 218 218 206 191 214 219 180
315 197 256 242 309 95 330 93 6 339 346 359 1 347 5 10 4 8 27 17 309 44 53 53 27 125 156 156 150 142 149 220 195 223 208 221 208 207 208 225 206 227 179 194 229 218 211 235 221
310 128 321 319 313 324 27 297 24 356 341 355 353 1 1 3 16 10 24 40 323 47 50 57 47 31 24 32 150 168 188 197 199 202 200 198 53 23 359 238 256 332 150 219 236 252 238 223 242
260 329 296 92 285 235 356 286 11 4 344 331 336 349 350 13 13 11 12 36 51 44 49 60 54 42 30 18 46 34 305 251 99 73 79 76 56 40 55 42 66 68 48 34 64 73 55 38 357
278 281 239 219 219 141 283 96 28 7 338 325 331 341 350 10 15 9 26 262 49 46 44 61 60 47 36 19 33 43 41 34 59 61 77 63 62 42 29 17 25 42 41 356 1 18 65 25 54
356 320 342 266 342 360 344 52 60 355 340 335 357 2 357 20 2 344 317 27 31 36 17 45 65 55 32 14 26 26 28 32 46 22 37 67 44 65 33 54 44 35 31 34 301 337 20 318 53
309 328 87 305 341 317 44 13 342 60 131 98 75 29 20 1 354 11 8 22 23 33 359 27 45 64 43 21 20 17 18 41 10 53 35 47 57 19 36 14 30 1 3 344 311 25 358 20 20
350 56 355 300 33 342 107 106 165 41 52 56 49 41 27 23 23 23 13 15 9 7 342 35 26 35 45 20 23 11 32 19 12 23 36 15 359 40 17 5 21 335 328 323 44 63 49 66 67
211 332 282 285 349 332 138 102 111 86 41 58 46 50 35 25 30 32 7 22 9 1 4 38 47 45 33 20 25 352 21 14 23 8 47 13 29 38 20 25 15 348 3 360 59 72 56 69 54
316 63 309 243 142 290 224 146 97 106 82 87 77 57 52 25 40 13 34 23 44 23 32 27 34 21 32 12 36 32 2 29 15 17 35 5 47 42 43 36 31 14 16 21 44 44 48 62 54
315 344 281 270 243 162 265 200 124 124 124 120 103 85 95 109 77 38 35 35 32 28 30 37 36 23 16 354 27 42 14 41 41 36 32 16 37 39 44 40 48 41 30 30 43 49 46 58 57